DW5272 Weather Reports


Display with metric or nautical units.
time (UTC)temp
F
wind
direction
speed
MPH
gust
MPH
rain 1hr
in
rain 24hr
in
rain mn
in
humidity
%
barometer
mb
20180623213032 70 288 3.0 8.0 0.07 0.15 0.08 79 1007.1
20180623210102 71 252 3.0 9.0 0.05 0.12 0.05 79 1006.9
20180623203102 72 322 3.0 9.0 0.01 0.08 0.01 81 1006.9
20180623200102 74 261 1.0 8.0 0.00 0.07 0.00 73 1006.7
20180623193101 75 258 0.0 9.0 0.00 0.07 0.00 70 1006.3
20180623190101 75 300 2.0 8.0 0.00 0.07 0.00 71 1006.0
20180623183100 74 242 2.0 10.0 0.00 0.07 0.00 71 1005.8
20180623180100 76 322 3.0 7.0 0.00 0.07 0.00 71 1005.7
20180623173100 74 223 1.0 7.0 0.00 0.07 0.00 70 1005.5
20180623170100 77 213 0.0 9.0 0.00 0.07 0.00 67 1005.5
20180623163100 75 355 2.0 13.0 0.00 0.07 0.00 66 1005.9
20180623160059 74 340 9.0 11.0 0.00 0.07 0.00 70 1006.2
20180623153059 73 11 3.0 9.0 0.00 0.07 0.00 73 1006.6
20180623150059 71 40 2.0 10.0 0.00 0.07 0.00 75 1006.6
20180623143059 69 16 2.0 9.0 0.00 0.07 0.00 74 1006.7
20180623140058 66 348 1.0 5.0 0.00 0.07 0.00 77 1007.3
20180623133058 65 346 0.0 4.0 0.00 0.07 0.00 81 1007.4
20180623130058 63 350 3.0 5.0 0.00 0.07 0.00 81 1007.3
20180623123058 63 355 3.0 4.0 0.00 0.07 0.00 80 1007.4
20180623120058 62 24 0.0 4.0 0.00 0.07 0.00 78 1007.2
20180623113057 61 5 2.0 6.0 0.00 0.07 0.00 78 1007.0
20180623110057 61 360 6.0 6.0 0.00 0.07 0.00 77 1006.9
20180623103057 60 325 3.0 5.0 0.00 0.07 0.00 77 1006.7
20180623100057 60 342 2.0 4.0 0.00 0.07 0.00 76 1006.8
20180623093057 61 59 1.0 3.0 0.00 0.07 0.00 74 1006.5
20180623090056 61 57 2.0 3.0 0.00 0.07 0.00 71 1005.8
20180623083056 62 44 0.0 4.0 0.00 0.07 0.00 68 1005.8
20180623080056 63 48 4.0 6.0 0.00 0.07 0.00 65 1006.2
20180623073056 62 32 2.0 4.0 0.00 0.07 0.00 66 1006.6
20180623070056 64 60 1.0 6.0 0.00 0.07 0.00 64 1006.9
20180623063055 65 74 2.0 6.0 0.00 0.07 0.00 62 1006.9
20180623060055 65 35 3.0 7.0 0.00 0.07 0.00 62 1007.0
20180623053055 66 13 2.0 6.0 0.00 0.07 0.00 64 1007.4
20180623050054 66 26 2.0 8.0 0.00 0.07 0.00 64 1007.8
20180623043054 67 34 3.0 7.0 0.00 0.07 0.00 67 1007.6
20180623040054 68 37 1.0 6.0 0.00 0.07 0.00 63 1007.9
20180623033054 68 90 3.0 8.0 0.00 0.07 0.07 64 1007.9
20180623030053 68 66 6.0 8.0 0.00 0.07 0.07 66 1008.1
20180623023053 69 73 3.0 7.0 0.00 0.07 0.07 68 1008.0
20180623020053 70 97 4.0 7.0 0.00 0.07 0.07 68 1007.8
20180623013052 70 35 1.0 9.0 0.00 0.07 0.07 66 1007.7
20180623010053 71 57 4.0 9.0 0.01 0.07 0.07 71 1007.7
20180623003052 71 65 5.0 8.0 0.04 0.07 0.07 70 1007.4
20180623000052 72 40 2.0 10.0 0.06 0.06 0.06 69 1007.3
20180622233052 74 97 6.0 11.0 0.03 0.03 0.03 66 1007.4
20180622230051 75 51 2.0 13.0 0.00 0.00 0.00 66 1007.4
20180622223051 77 28 3.0 13.0 0.00 0.00 0.00 60 1007.4
20180622220051 77 54 3.0 14.0 0.00 0.00 0.00 61 1007.7